Location: Home
(42.5358°N, 72.7383°W)
Time: 17:05:20
(UTC-04:00)

Kosmos-337 - Pass Details

Date: 07 July 2022
Orbit: 1467 x 1552 km, 74.0° (Epoch: 18 August)

Event Time Altitude Azimuth Distance (km) Brightness Sun altitude
Rises 01:57:45 0° 337° (NNW) 4,731 ? -23.3°
Reaches altitude 10° 02:00:45 10° 335° (NNW) 3,741 ? -23.2°
Maximum altitude 02:09:46 66° 256° (WSW) 1,654 ? -22.7°
Enters shadow 02:14:07 34° 187° (S) 2,313 ? -22.4°
